TITAN 3C TRANSTAGE DEB, 1964

Orbit data source: Space-Track

TITAN 3C TRANSTAGE DEB, 1964 is space debris in LEO originally from a launch on Fri, 15 Oct 1965 UTC launched from the Air Force Eastern Test Range (AFETR). Debris objects in space refer to the collection of defunct objects orbiting the Earth. Examples of debris include non-operational satellites, rocket bodies, and fragments generated from explosions, collisions, or faulty payload assembly.

Loading next visibility...
Identifier
1964, 1965-082GZ
Orbit
LEO
Country
Flag of USUS
Related business
Manufacturer
Unknown
Mission
Spacecraft
Bus & Motor
Unknown
Mass
Unknown
Launch date (UTC)
1965-10-15 (61 years ago)
Launch vehicle
Unknown
Launch site
Air Force Eastern Test Range (AFETR)
Object type
Payload
Rocket body
Debris
Shape & HBR
Unknown shape, 0.1 m
Radar Cross Section
Small (<0.1 m²)

Expand to show TLE details & history
Last TLE update: 12 hours ago

TLE from 12 hours ago
0 TITAN 3C TRANSTAGE DEB
1 01964U 65082GZ  26126.01702971  .00000835  00000-0  27873-3 0  9991
2 01964  32.2007  21.2622 0175970 215.7513 143.1230 14.26305146111621
Epoch: 2026-05-06T00:24Z
TLE epoch observation values (Epoch: 2026-05-06T00:24:31.366Z)
Latitude
-0.00001°
Longitude
151.24792°
Altitude
904.644 km
Speed
7.349 km/s
True Right ascension
01h 25m 02s
True Declination
0° 00' 00"
Sunlit
Object was in daylight at epoch
Visualization orbit readout
Latitude
Unknown
Longitude
Unknown
Altitude
Unknown
Speed
Unknown
Apparent Right ascension
Unknown
Apparent Declination
Unknown
Sunlit
N/A
Visualization observer readout
Local Sidereal Time
20:11:36
Azimuth
Unknown
Elevation
Unknown
Doppler factor
Unknown
Orbital elements
Apogee altitude
934.083 km
Perigee altitude
681.187 km
Semi-major axis
7,185.772 km
Eccentricity
0.0176
Inclination
32.2007°
RAAN
21.2622°
Arg. of periapsis
215.7513°
True anomaly
144.31206°
Mean anomaly
143.123°
Eccentric anomaly
143.71961°
Mean motion
3.56314 °/min
Orbital period
101.03 mins
BSTAR
0.00027873

Documentation

Showing up to 5 results
|